GORIZONT 12

Satellite information

Favourite Embed

Satellite Type and Status

PAYLOADIN ORBIT

Key statistics

Satellite GORIZONT 12 at a glance.

Uptime

14387

Days in orbit

Revolutions

≈ 1.0

Per day

Orbit

OTHER

Other

Inclination

10.4

Latest

Satellite identification and parameters

Extended collection of information and parameters for GORIZONT 12.

Object identification

Identified? True

Debris? False

Object name: GORIZONT 12

International designator: 1986-044A

Object number (NORAD): 16769

Object ID (CCSDS): 16769

Country: COMMONWEALTH OF INDEPENDENT STATES (CIS)

Current information (Y/N): Y

RCS size: LARGE

Orbital parameters

Period: 1435.264 minutes

Inclination: 10.4226 deg

SMA: 42148.424 km

Apoapsis: 35793.232 km

Periapsis: 35747.346 km

RAAN: 322.5969 deg

Eccentricy: 0.00054434

Argument of periapsis: 293.6701 deg

Mean anomaly: 238.8972 deg

Mean motion: 1.00329987 rev/day

Mean motion (dot): 0.00000075 rev/day2

B* drag term: 0.0 1/REarth

Two-line elements (TLE)

Creation date: Oct. 28, 2025, 7:11 p.m.

Reference frame: TEME

Reference center: EARTH

Epoch: Oct. 28, 2025, 3:01 a.m. UTC

TLE line 0: 0 GORIZONT 12

TLE line 1: 1 16769U 86044A 25301.12584273 .00000075 00000-0 00000-0 0 9996

TLE line 2: 2 16769 10.4226 322.5969 0005443 293.6701 238.8972 1.00329987144935

Live tracking on map

Real-time ground track for satellite GORIZONT 12.

In-orbit conjunctions

A list of the most updated potential collisions computed for object GORIZONT 12.

Target Orbit TCA Probability of collision Miss distance Type
COSMOS 1897 OTHER 2024-08-21 09:00:42 TBA 3394.0 (m) PAYLOAD

Associated space launch

Geostationary communications satellite

GORIZONT 12 was lifted into orbit during the mission ‘Proton-K/DM | Gorizont 12’, on board a Proton-K/DM space rocket.

The launch took place on June 10, 1986, 12:49 a.m. from 200/40.

For more information about the launch, click the button.

Launch to space Proton-K/DM | Gorizont 12
Proton-K/DM | Gorizont 12

Agency: N/A

Status: Launch Successful

Launch date: June 10, 1986, 12:49 a.m. UTC

Rocket: Proton-K/DM

Launch pad: 200/40

Location: Baikonur Cosmodrome, Republic of Kazakhstan

...

Latest news about this satellite

There are no fresh news available about this satellite. Check back as we update our databases every day.


Newsletter sign-up

Weekly statistics, charts and insights to help you stay on top of the space industry.